FIN13B EVRA-EFHK

Flight info

Callsign FIN13B
Flight time 0h 42m
Altitude 31000
Route SOKVA DCT ANAMA DCT KEMET DCT KEXLE DCT BEKNA DCT INTOR
Aircraft A320/M-SDE3FGHIRWY/LB1

Departure

Time 2026-04-23 18:24
Airport Riga International Airport (EVRA)

Arrival

Time 2026-04-23 19:06
Airport Helsinki Vantaa Airport (EFHK)
Time Latitude Longitude Altitude Speed Heading
2026-04-23 18:02 56.92291 23.97603 44 ft 0 kts 184°
2026-04-23 18:19 56.92289 23.97599 44 ft 1 kts 212°
2026-04-23 18:19 56.92293 23.97568 44 ft 6 kts 275°
2026-04-23 18:20 56.92262 23.97486 44 ft 9 kts 198°
2026-04-23 18:20 56.92186 23.97470 44 ft 13 kts 185°
2026-04-23 18:20 56.92089 23.97455 44 ft 16 kts 185°
2026-04-23 18:20 56.91981 23.97440 43 ft 15 kts 181°
2026-04-23 18:21 56.91864 23.97428 44 ft 20 kts 186°
2026-04-23 18:21 56.91731 23.97404 44 ft 19 kts 185°
2026-04-23 18:21 56.91605 23.97386 44 ft 18 kts 185°
2026-04-23 18:21 56.91487 23.97367 44 ft 16 kts 185°
2026-04-23 18:22 56.91382 23.97347 44 ft 13 kts 190°
2026-04-23 18:22 56.91309 23.97236 44 ft 15 kts 232°
2026-04-23 18:22 56.91256 23.97060 42 ft 17 kts 256°
2026-04-23 18:22 56.91288 23.96937 46 ft 9 kts
2026-04-23 18:23 56.91336 23.96944 47 ft 13 kts
2026-04-23 18:23 56.92913 23.97206 415 ft 165 kts
2026-04-23 18:24 56.94876 23.97512 1929 ft 185 kts
2026-04-23 18:24 56.96258 23.97717 2438 ft 213 kts
2026-04-23 18:24 56.97806 23.97960 3200 ft 231 kts
2026-04-23 18:25 57.01088 23.98551 5323 ft 242 kts
2026-04-23 18:25 57.02767 23.98863 6448 ft 243 kts
2026-04-23 18:25 57.04449 23.99208 7538 ft 244 kts
2026-04-23 18:25 57.06122 23.99731 8638 ft 245 kts
2026-04-23 18:26 57.07799 24.00317 9737 ft 246 kts
2026-04-23 18:26 57.09511 24.00930 10451 ft 260 kts
2026-04-23 18:26 57.11365 24.01593 10891 ft 281 kts
2026-04-23 18:26 57.13312 24.02294 11679 ft 288 kts
2026-04-23 18:27 57.15289 24.03005 12601 ft 291 kts
2026-04-23 18:27 57.17285 24.03720 13527 ft 294 kts
2026-04-23 18:27 57.19299 24.04435 14350 ft 296 kts
2026-04-23 18:27 57.21335 24.05156 15151 ft 299 kts
2026-04-23 18:28 57.23391 24.05885 15945 ft 302 kts
2026-04-23 18:28 57.25461 24.06624 16732 ft 305 kts
2026-04-23 18:28 57.27551 24.07370 17511 ft 307 kts
2026-04-23 18:28 57.29662 24.08121 18282 ft 310 kts
2026-04-23 18:29 57.31763 24.08865 18942 ft 313 kts
2026-04-23 18:29 57.33908 24.09625 19609 ft 315 kts
2026-04-23 18:29 57.36069 24.10393 20320 ft 317 kts
2026-04-23 18:29 57.38243 24.11164 21011 ft 320 kts
2026-04-23 18:30 57.40437 24.11945 21692 ft 322 kts
2026-04-23 18:30 57.42645 24.12737 22374 ft 325 kts
2026-04-23 18:30 57.44869 24.13537 23050 ft 327 kts
2026-04-23 18:30 57.47116 24.14348 23669 ft 330 kts
2026-04-23 18:31 57.49371 24.15160 24220 ft 331 kts
2026-04-23 18:31 57.51642 24.15978 24766 ft 333 kts
2026-04-23 18:31 57.53918 24.16800 25305 ft 334 kts
2026-04-23 18:31 57.56204 24.17626 25832 ft 335 kts
2026-04-23 18:32 57.58500 24.18455 26349 ft 337 kts
2026-04-23 18:32 57.60800 24.19290 26852 ft 338 kts
2026-04-23 18:32 57.63113 24.20131 27347 ft 339 kts
2026-04-23 18:32 57.65437 24.20973 27841 ft 341 kts
2026-04-23 18:33 57.67765 24.21816 28321 ft 342 kts
2026-04-23 18:33 57.70107 24.22666 28785 ft 343 kts
2026-04-23 18:33 57.72456 24.23519 29240 ft 345 kts
2026-04-23 18:33 57.74819 24.24374 29673 ft 346 kts
2026-04-23 18:34 57.77192 24.25235 30078 ft 348 kts
2026-04-23 18:34 57.79572 24.26106 30407 ft 350 kts
2026-04-23 18:34 57.81970 24.26990 30729 ft 352 kts
2026-04-23 18:34 57.84379 24.27877 30894 ft 352 kts
2026-04-23 18:35 57.86723 24.28742 30913 ft 334 kts
2026-04-23 18:35 57.91147 24.30393 30914 ft 322 kts
2026-04-23 18:36 57.95508 24.32258 30912 ft 321 kts 10°
2026-04-23 18:36 57.99853 24.34198 30909 ft 321 kts 10°
2026-04-23 18:37 58.04195 24.36127 30909 ft 320 kts 10°
2026-04-23 18:37 58.08536 24.38039 30905 ft 320 kts
2026-04-23 18:38 58.12866 24.39946 30899 ft 320 kts 10°
2026-04-23 18:38 58.17198 24.41855 30899 ft 319 kts
2026-04-23 18:39 58.21525 24.43761 30891 ft 319 kts
2026-04-23 18:39 58.25864 24.45685 30895 ft 326 kts
2026-04-23 18:39 58.28119 24.46679 30895 ft 339 kts
2026-04-23 18:40 58.30454 24.47706 30903 ft 350 kts 10°
2026-04-23 18:40 58.35303 24.49857 30900 ft 363 kts 10°
2026-04-23 18:41 58.40276 24.52096 30890 ft 370 kts 10°
2026-04-23 18:41 58.45305 24.54206 30895 ft 368 kts
2026-04-23 18:42 58.50421 24.54630 30889 ft 368 kts
2026-04-23 18:42 58.55506 24.54986 30899 ft 368 kts
2026-04-23 18:43 58.60655 24.55339 30895 ft 368 kts
2026-04-23 18:43 58.65731 24.55684 30894 ft 367 kts
2026-04-23 18:44 58.70836 24.56045 30891 ft 367 kts
2026-04-23 18:44 58.75938 24.56407 30890 ft 367 kts
2026-04-23 18:45 58.81039 24.56765 30876 ft 367 kts
2026-04-23 18:45 58.86132 24.57113 30873 ft 367 kts
2026-04-23 18:46 58.91228 24.57479 30873 ft 366 kts
2026-04-23 18:46 58.93782 24.57663 30192 ft 368 kts
2026-04-23 18:46 58.96337 24.57843 29122 ft 368 kts
2026-04-23 18:46 58.98906 24.58020 28042 ft 371 kts
2026-04-23 18:47 59.01507 24.58205 26989 ft 377 kts
2026-04-23 18:47 59.04152 24.58397 26078 ft 383 kts
2026-04-23 18:47 59.06829 24.58590 25600 ft 388 kts
2026-04-23 18:47 59.09537 24.58783 25127 ft 390 kts
2026-04-23 18:48 59.12251 24.58973 24637 ft 390 kts
2026-04-23 18:48 59.14956 24.59160 24151 ft 388 kts
2026-04-23 18:48 59.17651 24.59350 23656 ft 387 kts
2026-04-23 18:48 59.20335 24.59540 23109 ft 386 kts
2026-04-23 18:49 59.23013 24.59733 22594 ft 384 kts
2026-04-23 18:49 59.25680 24.59925 22091 ft 382 kts
2026-04-23 18:49 59.28325 24.60117 21585 ft 380 kts
2026-04-23 18:49 59.30957 24.60313 21079 ft 378 kts
2026-04-23 18:50 59.32692 24.60443 20744 ft 376 kts
2026-04-23 18:50 59.36149 24.60696 20068 ft 373 kts
2026-04-23 18:50 59.38738 24.60884 19556 ft 372 kts
2026-04-23 18:50 59.41316 24.61073 19062 ft 370 kts
2026-04-23 18:51 59.43882 24.61258 18554 ft 368 kts
2026-04-23 18:51 59.46433 24.61442 18042 ft 366 kts
2026-04-23 18:51 59.48973 24.61622 17516 ft 365 kts
2026-04-23 18:51 59.51504 24.61800 17032 ft 363 kts
2026-04-23 18:52 59.54028 24.61978 16554 ft 362 kts
2026-04-23 18:52 59.56536 24.62158 16077 ft 360 kts
2026-04-23 18:52 59.59037 24.62339 15605 ft 359 kts
2026-04-23 18:52 59.61523 24.62523 15141 ft 357 kts
2026-04-23 18:53 59.64000 24.62710 14665 ft 356 kts
2026-04-23 18:53 59.66469 24.62899 14203 ft 355 kts
2026-04-23 18:53 59.68921 24.63089 13787 ft 348 kts
2026-04-23 18:53 59.71276 24.63272 13658 ft 329 kts
2026-04-23 18:54 59.73506 24.63443 13520 ft 311 kts
2026-04-23 18:54 59.75572 24.63601 13379 ft 282 kts
2026-04-23 18:54 59.77443 24.63743 13242 ft 257 kts
2026-04-23 18:54 59.79175 24.63871 12862 ft 244 kts
2026-04-23 18:55 59.80851 24.63986 12256 ft 240 kts
2026-04-23 18:55 59.82515 24.64101 11595 ft 239 kts
2026-04-23 18:55 59.84173 24.64220 10936 ft 238 kts
2026-04-23 18:55 59.85829 24.64340 10360 ft 238 kts
2026-04-23 18:56 59.86930 24.64422 10121 ft 239 kts
2026-04-23 18:56 59.89163 24.64594 10001 ft 241 kts
2026-04-23 18:56 59.90819 24.65103 9901 ft 245 kts 19°
2026-04-23 18:56 59.92177 24.67134 9808 ft 256 kts 45°
2026-04-23 18:57 59.93228 24.70046 9706 ft 260 kts 50°
2026-04-23 18:57 59.94221 24.73053 9606 ft 259 kts 50°
2026-04-23 18:57 59.95209 24.76059 9498 ft 259 kts 50°
2026-04-23 18:57 59.96205 24.79072 9170 ft 262 kts 51°
2026-04-23 18:58 59.97232 24.82081 8683 ft 261 kts 46°
2026-04-23 18:58 59.98619 24.84240 8213 ft 251 kts 19°
2026-04-23 18:58 60.00311 24.84698 7735 ft 247 kts 351°
2026-04-23 18:58 60.01966 24.83780 7276 ft 247 kts 341°
2026-04-23 18:59 60.03588 24.82630 6815 ft 248 kts 340°
2026-04-23 18:59 60.05216 24.81455 6362 ft 248 kts 340°
2026-04-23 18:59 60.06842 24.80285 5886 ft 248 kts 340°
2026-04-23 18:59 60.08439 24.79140 5396 ft 238 kts 340°
2026-04-23 19:00 60.09967 24.78051 4919 ft 228 kts 340°
2026-04-23 19:00 60.11434 24.77015 4449 ft 219 kts 340°
2026-04-23 19:00 60.12850 24.75990 3936 ft 215 kts 336°
2026-04-23 19:00 60.14016 24.74181 3404 ft 214 kts 314°
2026-04-23 19:01 60.14971 24.71901 2872 ft 213 kts 311°
2026-04-23 19:01 60.15897 24.69569 2416 ft 213 kts 310°
2026-04-23 19:01 60.16862 24.67324 2299 ft 213 kts 323°
2026-04-23 19:01 60.18191 24.66202 2305 ft 204 kts 352°
2026-04-23 19:02 60.19113 24.66188 2307 ft 199 kts
2026-04-23 19:02 60.20792 24.67581 2316 ft 197 kts 36°
2026-04-23 19:02 60.21747 24.69524 2308 ft 190 kts 44°
2026-04-23 19:02 60.22617 24.71422 2317 ft 180 kts 44°
2026-04-23 19:03 60.23460 24.73258 2320 ft 177 kts 44°
2026-04-23 19:03 60.24275 24.75034 2195 ft 167 kts 44°
2026-04-23 19:03 60.25000 24.76621 2034 ft 144 kts 43°
2026-04-23 19:03 60.25645 24.78027 1849 ft 131 kts 43°
2026-04-23 19:04 60.26253 24.79352 1682 ft 127 kts 43°
2026-04-23 19:04 60.26847 24.80648 1504 ft 125 kts 43°
2026-04-23 19:04 60.27435 24.81934 1308 ft 125 kts 44°
2026-04-23 19:04 60.28022 24.83223 1113 ft 125 kts 44°
2026-04-23 19:05 60.28619 24.84521 939 ft 127 kts 45°
2026-04-23 19:05 60.29211 24.85816 780 ft 128 kts 45°
2026-04-23 19:05 60.29814 24.87135 610 ft 128 kts 46°
2026-04-23 19:05 60.30419 24.88457 448 ft 128 kts 45°
2026-04-23 19:06 60.31023 24.89780 267 ft 128 kts 45°
2026-04-23 19:06 60.31612 24.91086 148 ft 118 kts 46°
2026-04-23 19:06 60.32068 24.92086 156 ft 73 kts 47°
2026-04-23 19:06 60.32348 24.92706 170 ft 43 kts 51°
2026-04-23 19:07 60.32458 24.93215 175 ft 28 kts 78°
2026-04-23 19:07 60.32481 24.93431 174 ft 12 kts 78°
2026-04-23 19:07 60.32499 24.93598 172 ft 11 kts 77°
2026-04-23 19:07 60.32512 24.93708 171 ft 8 kts 77°
2026-04-23 19:08 60.32523 24.93810 171 ft 7 kts 78°
2026-04-23 19:08 60.32535 24.93902 170 ft 7 kts 65°
2026-04-23 19:08 60.32564 24.93976 170 ft 6 kts 47°
2026-04-23 19:08 60.32592 24.94036 171 ft 6 kts 47°
2026-04-23 19:09 60.32623 24.94104 171 ft 6 kts 47°
2026-04-23 19:09 60.32673 24.94214 172 ft 13 kts 48°
2026-04-23 19:09 60.32740 24.94363 173 ft 17 kts 47°
2026-04-23 19:09 60.32827 24.94553 174 ft 20 kts 47°
2026-04-23 19:10 60.32929 24.94776 177 ft 22 kts 47°
2026-04-23 19:10 60.33039 24.95018 177 ft 25 kts 48°
2026-04-23 19:10 60.33153 24.95269 178 ft 20 kts 47°
2026-04-23 19:10 60.33206 24.95500 183 ft 19 kts 108°
2026-04-23 19:11 60.33111 24.95698 180 ft 21 kts 136°
2026-04-23 19:11 60.33007 24.95846 180 ft 16 kts 150°
2026-04-23 19:11 60.32897 24.95974 175 ft 20 kts 149°
2026-04-23 19:11 60.32773 24.96118 173 ft 21 kts 150°
2026-04-23 19:12 60.32686 24.96220 172 ft 23 kts 149°
2026-04-23 19:12 60.32571 24.96355 173 ft 7 kts 150°
2026-04-23 19:12 60.32547 24.96384 174 ft 2 kts 150°
2026-04-23 19:12 60.32538 24.96394 174 ft 4 kts 150°
2026-04-23 19:13 60.32492 24.96447 174 ft 9 kts 150°
2026-04-23 19:13 60.32427 24.96523 175 ft 11 kts 150°
2026-04-23 19:13 60.32357 24.96603 172 ft 13 kts 150°
2026-04-23 19:13 60.32265 24.96710 167 ft 17 kts 149°
2026-04-23 19:14 60.32190 24.96799 166 ft 10 kts 150°
2026-04-23 19:14 60.32134 24.96864 167 ft 9 kts 150°
2026-04-23 19:14 60.32087 24.96919 167 ft 6 kts 149°
2026-04-23 19:14 60.32049 24.96964 166 ft 6 kts 149°
2026-04-23 19:15 60.32013 24.96954 167 ft 5 kts 216°
2026-04-23 19:15 60.31987 24.96913 167 ft 4 kts 218°
2026-04-23 19:15 60.31975 24.96894 167 ft 0 kts 218°